Location: Durham
(54.7770°N, 1.5720°W)
Time: 07:27:59
(UTC+01:00)

ISS - Visible Passes

Search period start: 22 September 2017 00:00
Search period end: 02 October 2017 00:00
Orbit: 401 x 407 km, 51.6° (Epoch: 22 September)

Date Brightness Start Highest point End Pass type
(mag) Time Alt. Az. Time Alt. Az. Time Alt. Az.
26 Sep -1.1 21:02:24 10° SSW 21:02:32 11° SSW 21:02:32 11° SSW visible
27 Sep -1.8 20:10:55 10° S 20:12:40 14° SSE 20:12:40 14° SSE visible
28 Sep -2.2 20:53:28 10° SW 20:55:19 24° SSW 20:55:19 24° SSW visible
29 Sep -2.3 20:01:32 10° SSW 20:04:09 22° SSE 20:05:10 19° SE visible
29 Sep -1.3 21:37:01 10° WSW 21:37:50 16° WSW 21:37:50 16° WSW visible
30 Sep -3.1 20:44:46 10° WSW 20:47:34 38° S 20:47:34 38° S visible
01 Oct -2.8 19:52:35 10° SW 19:55:34 32° SSE 19:57:14 20° ESE visible
01 Oct -1.6 21:28:31 10° WSW 21:29:52 22° WSW 21:29:52 22° WSW visible
